ASTRA 5A (SIRIUS 2) 1 25049U 97071A 21060.34483670 -.00000330 00000-0 00000-0 0 9995 2 25049 8.7788 46.6615 0006293 335.7042 36.6761 0.99407445 84904 INDOSTAR 1 1 25050U 97071B 21060.53951716 .00000130 00000-0 00000+0 0 9995 2 25050 10.8174 32.8962 0005860 334.4577 17.9810 1.00256304 85377